Showing default

KUIPER-00613, 69293

Orbit data source: Space-Track

KUIPER-00613, 69293 is a payload satellite owned by Kuiper Systems (US) in LEO that was launched on Fri, 29 May 2026 UTC via an ATLAS V 551 launch vehicle from the Air Force Eastern Test Range (AFETR). Payload-class satellites include a variety of spacecraft equipped with specific instruments for various scientific and technological missions. These include communications satellites like Starlink; space stations such as the ISS; scientific satellites like the Hubble; Earth observation satellites from companies like Planet Labs, Umbra, and HawkEye 360; GPS; miniature CubeSats for education and research; and military/defense satellites.

Loading next visibility...
Identifier
69293, 2026-118AC
Orbit
LEO
Country
Flag of USUS
Related business
Manufacturer
Kuiper Systems
Mission
Operational spacecraft
Bus & Motor
KUIPER, Unknown motor
Mass
~490 kg wet, ~490 kg dry
Launch date (UTC)
2026-05-29 (3 weeks ago)
Launch vehicle
ATLAS V 551
Launch site
Air Force Eastern Test Range (AFETR)
Object type
Payload
Rocket body
Debris
Shape & HBR
Unknown
Radar Cross Section
Large (>1 m²)

Expand to show TLE details & history
Last TLE update: 13 hours ago

TLE from 13 hours ago
0 KUIPER-00613
1 69293U 26118AC  26171.34205443  .00011646  00000-0  35506-3 0  9999
2 69293  51.8637  38.3109 0010202 194.3154 165.7543 15.34356049  4462
Epoch: 2026-06-20T08:12Z
TLE epoch observation values (Epoch: 2026-06-20T08:12:33.502Z)
Latitude
-0.00009°
Longitude
6.61318°
Altitude
470.359 km
Speed
7.628 km/s
True Right ascension
02h 33m 14s
True Declination
0° 00' 00"
Sunlit
Object was in daylight at epoch
Visualization orbit readout
Latitude
Unknown
Longitude
Unknown
Altitude
Unknown
Speed
Unknown
Apparent Right ascension
Unknown
Apparent Declination
Unknown
Sunlit
N/A
Visualization observer readout
Local Sidereal Time
08:33:08
Azimuth
Unknown
Elevation
Unknown
Doppler factor
Unknown
Orbital elements
Apogee altitude
470.281 km
Perigee altitude
456.322 km
Semi-major axis
6,841.439 km
Eccentricity
0.00102
Inclination
51.8637°
RAAN
38.3109°
Arg. of periapsis
194.3154°
True anomaly
165.78303°
Mean anomaly
165.7543°
Eccentric anomaly
165.76867°
Mean motion
3.8355 °/min
Orbital period
93.86 mins
BSTAR
0.00035506
Loading maneuver chart data...
Computing Atmospheric mass density...
Loading historical data...
Loading historical data...
Loading historical data...
Loading historical data...
Loading historical data...
Loading historical data...
Loading historical data...

Documentation

Showing up to 5 results
|